Regional Weather Roundup
Issued by NWS

Home | Current Version | Previous Version | Graphics & Text | Print | Product List | Glossary On
Versions: 1 2 3 4 5 6 7 8 9 10 11 12 13 14 15 16 17 18 19 20 21 22 23 24 25 26 27 28 29 30 31 32 33 34 35 36 37 38 39 40 41 42 43 44 45 46 47 48 49 50
000
ASUS43 KLMK 100510
RWRKY
KENTUCKY REGIONAL WEATHER ROUNDUP
NATIONAL WEATHER SERVICE LOUISVILLE KY
1200 AM EST WED FEB 10 2016

NOTE "FAIR" INDICATES FEW OR NO CLOUDS BELOW 12,000 FEET
WITH NO SIGNIFICANT WEATHER AND/OR OBSTRUCTIONS TO VISIBILITY.

KYZ001>023-026-027-061>063-070>075-100600-
WESTERN AND SOUTH CENTRAL KENTUCKY

CITY           SKY/WX    TMP DP  RH WIND       PRES   REMARKS
PADUCAH        CLOUDY    23  13  65 W8        30.11S WCI  14
HENDERSON      MOCLDY    19  12  73 W10       30.08S WCI   8
OWENSBORO      MOCLDY    20  11  68 NW13      30.07F WCI   7
HOPKINSVILLE   FLURRIES  19  16  86 SW5       30.09S WCI  13
BOWLING GREEN  CLOUDY    21  11  65 W10       30.08S WCI  10
GLASGOW        FLURRIES  19  13  77 W10       30.05S WCI   7
$$

KYZ024-025-028>034-038-045-046-053-100600-
NORTH CENTRAL KENTUCKY

CITY           SKY/WX    TMP DP  RH WIND       PRES   REMARKS
LOUISVILLE/SDF CLOUDY    20  13  74 W15G23    30.02S HAZE    WCI   6
LOUISVILLE/LOU CLOUDY    20  13  74 W13       30.02S WCI   7
FORT KNOX      CLOUDY    15  10  80 W7        29.99F WCI   5
$$

KYZ035>037-039>044-047>052-055>060-089>105-100600-
NORTHEAST KENTUCKY

CITY           SKY/WX    TMP DP  RH WIND       PRES   REMARKS
LEXINGTON      CLOUDY    18  11  74 W10       29.96S WCI   6
COVINGTON      FLURRIES  16  10  77 W8        29.93S WCI   5
FRANKFORT      NOT AVBL
$$

KYZ054-064>069-076>088-106>120-100600-
SOUTHEAST KENTUCKY

CITY           SKY/WX    TMP DP  RH WIND       PRES   REMARKS
JACKSON        CLOUDY    20  12  71 W9G20     29.90S WCI   9
LONDON         CLOUDY    19  12  74 W8        29.96S WCI   9
SOMERSET       CLOUDY    18  12  79 W12G17    30.02S WCI   5
MIDDLESBORO    CLOUDY    21  12  66 NW7       29.97S WCI  13
MONTICELLO     FLURRIES  19  13  77 W13       30.03S WCI   6
$$




USA.gov is the U.S. government's official web portal to all federal, state and local government web resources and services.